CW4086 Weather Reports


time (UTC)temp
C
wind
direction
speed
KPH
gust
KPH
rain 1hr
cm
rain 24hr
cm
rain mn
cm
humidity
%
barometer
mb
20260505061604 11 289 0.0 3.2 0.00 0.00 0.00 78 1015.4
20260505061106 11 0 1.6 4.8 0.00 0.00 0.00 77 1015.5
20260505060604 11 279 1.6 4.8 0.00 0.00 0.00 76 1015.5
20260505060105 11 274 1.6 4.8 0.00 0.00 0.00 77 1015.5
20260505054604 12 195 0.0 1.6 0.00 0.00 0.00 77 1015.6
20260505054104 12 190 0.0 1.6 0.00 0.00 0.00 77 1015.6
20260505053604 12 189 0.0 3.2 0.00 0.00 0.00 76 1015.6
20260505053104 12 203 0.0 3.2 0.00 0.00 0.00 76 1015.6
20260505052604 12 174 1.6 3.2 0.00 0.00 0.00 76 1015.6
20260505051604 12 141 0.0 3.2 0.00 0.00 0.00 75 1015.6
20260505051107 12 209 1.6 3.2 0.00 0.00 0.00 75 1015.6
20260505050604 12 329 1.6 4.8 0.00 0.00 0.00 75 1015.6
20260505050104 12 295 1.6 4.8 0.00 0.00 0.00 74 1015.6
20260505041605 12 333 1.6 4.8 0.00 0.00 0.00 73 1015.5
20260505041106 12 353 1.6 4.8 0.00 0.00 0.00 73 1015.5
20260505040104 12 196 1.6 4.8 0.00 0.00 0.00 71 1015.4
20260505035606 12 303 1.6 4.8 0.00 0.00 0.00 71 1015.3
20260505035104 12 284 1.6 4.8 0.00 0.00 0.00 71 1015.1
20260505034604 12 248 1.6 4.8 0.00 0.00 0.00 71 1015.1
20260505034104 12 270 1.6 4.8 0.00 0.00 0.00 71 1015.1
20260505033604 12 258 1.6 4.8 0.00 0.00 0.00 71 1015.1
20260505033104 12 306 3.2 8.0 0.00 0.00 0.00 70 1015.0
20260505032604 13 274 1.6 11.3 0.00 0.00 0.00 69 1015.0
20260505031603 13 296 3.2 11.3 0.00 0.00 0.00 68 1015.0
20260505031106 13 262 1.6 4.8 0.00 0.00 0.00 68 1014.9
20260505030606 13 302 1.6 4.8 0.00 0.00 0.00 67 1014.8
20260505030104 13 333 1.6 4.8 0.00 0.00 0.00 66 1014.7
20260505025604 13 287 1.6 9.7 0.00 0.00 0.00 64 1014.7
20260505024104 13 275 4.8 9.7 0.00 0.00 0.00 63 1014.6
20260505023604 13 278 4.8 11.3 0.00 0.00 0.00 63 1014.7
20260505023104 13 284 4.8 14.5 0.00 0.00 0.00 62 1014.6
20260505022604 13 272 6.4 14.5 0.00 0.00 0.00 62 1014.6
20260505022104 13 267 8.0 14.5 0.00 0.00 0.00 62 1014.6
20260505021604 13 290 4.8 12.9 0.00 0.00 0.00 61 1014.6
20260505021106 13 280 4.8 12.9 0.00 0.00 0.00 61 1014.6
20260505020604 14 287 4.8 12.9 0.00 0.00 0.00 60 1014.6
20260505020104 14 299 6.4 16.1 0.00 0.00 0.00 59 1014.6
20260505015604 14 273 8.0 16.1 0.00 0.00 0.00 58 1014.6
20260505015104 14 304 8.0 19.3 0.00 0.00 0.00 58 1014.5
20260505014604 15 281 8.0 19.3 0.00 0.00 0.00 57 1014.4
20260505014104 15 281 9.7 19.3 0.00 0.00 0.00 57 1014.5
20260505013103 15 300 11.3 24.1 0.00 0.00 0.00 55 1014.5
20260505012104 16 295 14.5 27.4 0.00 0.00 0.00 50 1014.4
20260505011107 16 293 3.2 8.0 0.00 0.00 0.00 50 1014.5
20260505010604 16 273 3.2 11.3 0.00 0.00 0.00 50 1014.5
20260505005603 16 275 4.8 9.7 0.00 0.00 0.00 48 1014.6
20260505005104 16 260 3.2 8.0 0.00 0.00 0.00 47 1014.5
20260505004603 16 325 3.2 9.7 0.00 0.00 0.00 48 1014.5
20260505004103 16 329 1.6 9.7 0.00 0.00 0.00 47 1014.5
20260505003604 16 265 4.8 9.7 0.00 0.00 0.00 47 1014.5
20260505003104 16 266 4.8 9.7 0.00 0.00 0.00 45 1014.5
20260505002604 16 251 4.8 9.7 0.00 0.00 0.00 44 1014.6
20260505002104 16 257 4.8 9.7 0.00 0.00 0.00 45 1014.6
20260505001604 16 277 3.2 8.0 0.00 0.00 0.00 47 1014.6
20260505001106 16 264 3.2 8.0 0.00 0.00 0.00 46 1014.7
20260505000104 16 277 8.0 12.9 0.00 0.00 0.00 46 1014.6
20260504235605 16 275 8.0 11.3 0.00 0.00 0.00 47 1014.6
20260504234604 16 284 3.2 11.3 0.00 0.00 0.00 49 1014.6
20260504234104 16 279 4.8 9.7 0.00 0.00 0.00 47 1014.6
20260504233603 16 299 1.6 4.8 0.00 0.00 0.00 47 1014.6
20260504232604 16 284 4.8 12.9 0.00 0.00 0.00 47 1014.6
20260504232103 16 316 6.4 14.5 0.00 0.00 0.00 49 1014.6
20260504231604 16 280 6.4 19.3 0.00 0.00 0.00 48 1014.6
20260504231106 16 274 9.7 19.3 0.00 0.00 0.00 48 1014.6
20260504230603 16 294 8.0 12.9 0.00 0.00 0.00 48 1014.6
20260504230104 16 288 4.8 16.1 0.00 0.00 0.00 47 1014.4
20260504225604 16 277 9.7 16.1 0.00 0.00 0.00 47 1014.6
20260504225104 16 265 11.3 16.1 0.00 0.00 0.00 47 1014.7
20260504224604 16 324 4.8 9.7 0.00 0.00 0.00 48 1014.7
20260504224104 16 259 3.2 9.7 0.00 0.00 0.00 49 1014.7
20260504223604 16 289 1.6 14.5 0.00 0.00 0.00 48 1015.0
20260504223105 16 321 4.8 14.5 0.00 0.00 0.00 49 1014.9
20260504222104 16 297 9.7 16.1 0.00 0.00 0.00 49 1015.1
20260504221604 16 296 4.8 12.9 0.00 0.00 0.00 49 1015.0
20260504220604 16 267 4.8 9.7 0.00 0.00 0.00 49 1015.2
20260504220104 16 289 4.8 14.5 0.00 0.00 0.00 50 1015.1
20260504215604 16 290 8.0 14.5 0.00 0.00 0.00 50 1015.4
20260504214104 16 285 3.2 11.3 0.00 0.00 0.00 50 1015.4
20260504213604 16 246 3.2 12.9 0.00 0.00 0.00 50 1015.6
20260504213104 16 169 3.2 12.9 0.00 0.00 0.00 51 1015.6
20260504212604 16 264 4.8 14.5 0.00 0.00 0.00 50 1015.8
20260504211604 15 250 4.8 12.9 0.00 0.00 0.00 51 1015.7
20260504211104 15 278 3.2 14.5 0.00 0.00 0.00 53 1015.8
20260504210105 15 268 8.0 14.5 0.00 0.00 0.00 53 1015.9
20260504205604 15 286 8.0 19.3 0.00 0.00 0.00 52 1016.1
20260504205104 15 269 9.7 19.3 0.00 0.00 0.00 52 1016.1
20260504204604 15 288 8.0 19.3 0.00 0.00 0.00 52 1016.1
20260504204105 15 266 1.6 8.0 0.00 0.00 0.00 54 1016.0
20260504203604 15 265 4.8 9.7 0.00 0.00 0.00 53 1015.8
20260504203104 15 232 4.8 9.7 0.00 0.00 0.00 53 1016.1
20260504202604 15 357 1.6 4.8 0.00 0.00 0.00 54 1016.2
20260504202104 15 352 1.6 8.0 0.00 0.00 0.00 54 1016.2
20260504201606 15 253 4.8 8.0 0.00 0.00 0.00 54 1016.2
20260504200607 15 250 1.6 8.0 0.00 0.00 0.00 54 1016.2
20260504200105 15 251 6.4 8.0 0.00 0.00 0.00 53 1016.3
20260504195604 15 292 1.6 8.0 0.00 0.00 0.00 54 1016.3
20260504195105 15 319 1.6 8.0 0.00 0.00 0.00 53 1016.3
20260504193604 15 0 4.8 8.0 0.00 0.00 0.00 56 1016.3
20260504192604 14 270 1.6 9.7 0.00 0.00 0.00 58 1016.3
20260504192104 14 234 4.8 9.7 0.00 0.00 0.00 58 1016.7
20260504191605 14 295 4.8 9.7 0.00 0.00 0.00 58 1016.5
20260504191104 14 305 3.2 14.5 0.00 0.00 0.00 58 1016.7
20260504190604 14 357 4.8 14.5 0.00 0.00 0.00 58 1016.8
20260504190104 14 289 8.0 14.5 0.00 0.00 0.00 58 1016.8
20260504185604 14 257 4.8 11.3 0.00 0.00 0.00 58 1016.6
20260504185104 13 270 1.6 16.1 0.00 0.00 0.00 58 1016.5
20260504184604 13 292 4.8 16.1 0.00 0.00 0.00 58 1016.6
20260504184104 13 296 6.4 16.1 0.00 0.00 0.00 56 1016.7
20260504183604 13 278 3.2 14.5 0.00 0.00 0.00 56 1016.6
20260504182604 14 271 8.0 16.1 0.00 0.00 0.00 56 1016.8
20260504182104 14 296 9.7 16.1 0.00 0.00 0.00 55 1016.8
20260504181605 14 297 8.0 12.9 0.00 0.00 0.00 55 1016.8
20260504181104 14 272 6.4 11.3 0.00 0.00 0.00 56 1016.7
20260504180606 13 285 3.2 8.0 0.00 0.00 0.00 57 1016.7
20260504175104 13 269 4.8 12.9 0.00 0.00 0.00 57 1016.5
20260504174604 13 273 4.8 14.5 0.00 0.00 0.00 55 1016.3
20260504174104 13 271 8.0 14.5 0.00 0.00 0.00 56 1016.3
20260504173603 13 318 8.0 12.9 0.00 0.00 0.00 58 1016.3
20260504172604 13 175 1.6 4.8 0.00 0.00 0.00 66 1016.2
20260504172104 13 279 0.0 4.8 0.00 0.00 0.00 67 1016.3
20260504171104 12 272 1.6 4.8 0.00 0.00 0.00 68 1016.2
20260504170605 12 263 1.6 4.8 0.00 0.00 0.00 69 1016.2
20260504170105 12 254 0.0 1.6 0.00 0.00 0.00 70 1016.2
20260504160104 12 305 3.2 4.8 0.00 0.00 0.00 72 1015.9
20260504151105 11 327 1.6 8.0 0.00 0.00 0.00 77 1015.6
20260504150603 11 288 0.0 3.2 0.00 0.00 0.00 79 1015.6
20260504150104 11 298 1.6 3.2 0.00 0.00 0.00 80 1015.7
20260504141104 10 306 0.0 3.2 0.00 0.00 0.00 84 1015.5
20260504140606 10 290 0.0 3.2 0.00 0.00 0.00 84 1015.5
20260504140104 10 280 0.0 1.6 0.00 0.00 0.00 85 1015.5
20260504130607 11 278 1.6 4.8 0.00 0.00 0.00 83 1015.1
20260504130104 11 263 1.6 3.2 0.00 0.00 0.00 83 1015.2
20260504120104 11 178 0.0 1.6 0.00 0.03 0.00 79 1014.7
20260504110604 11 218 0.0 1.6 0.00 0.03 0.00 78 1014.8
20260504110104 11 235 0.0 1.6 0.00 0.03 0.00 78 1014.8
20260504100607 11 184 0.0 1.6 0.00 0.03 0.00 76 1014.4
20260504100105 11 184 0.0 1.6 0.00 0.03 0.00 76 1014.4
20260504090104 12 184 0.0 1.6 0.00 0.03 0.00 76 1014.6
20260504081104 12 171 0.0 1.6 0.00 0.03 0.00 73 1015.7
20260504080606 12 171 0.0 1.6 0.00 0.03 0.00 73 1016.1
20260504080104 12 171 0.0 1.6 0.00 0.03 0.00 74 1016.3
20260504070104 12 194 0.0 3.2 0.00 0.03 0.00 75 1015.7